Regional Weather Roundup
Issued by NWS Newport/Morehead, NC

Current Version | Previous Version | Graphics & Text | Print | Product List | Glossary Off
Versions: 1 2 3 4 5 6 7 8 9 10 11 12 13 14 15 16 17 18 19 20 21 22 23 24 25 26 27 28 29 30 31 32 33 34 35 36 37 38 39 40 41 42 43 44 45 46 47 48 49 50

000
ASUS42 KMHX 241222
RWRMHX
WEATHER ROUNDUP FOR EASTERN NORTH CAROLINA
NATIONAL WEATHER SERVICE NEWPORT/MOREHEAD CITY NC
700 AM EST MON NOV 24 2014

NOTE: "FAIR" INDICATES FEW OR NO CLOUDS BELOW 12,000 FEET
WITH NO SIGNIFICANT WEATHER AND/OR OBSTRUCTIONS TO VISIBILITY

NCZ015>017-031-032-045>047-102-103-241300-
NORTH COAST

CITY           SKY/WX    TMP DP  RH WIND       PRES   REMARKS
EDENTON        CLEAR     65  64  97 S13       29.83R
ELIZABETH CITY CLEAR     68  64  87 S12G21    29.82S
KITTY HAWK     MOSUNNY   64  63  98 S7        29.85R
MANTEO         MOCLDY    60  60  99 S12       29.87R FOG

$$

NCZ045>047-081-094-103-104-241300-
CENTRAL COAST

CITY           SKY/WX    TMP DP  RH WIND       PRES   REMARKS
FRISCO         CLOUDY    68  67  96 SW8       29.88R FOG
SWANQUARTER      N/A     61 N/A N/A S10G16    29.82S

$$

NCZ095-097-098-100-101-241300-
SOUTHERN COAST

CITY           SKY/WX    TMP DP  RH WIND       PRES   REMARKS
BEAUFORT       CLOUDY    66  65  96 SW9       29.89R
CEDAR ISLAND     N/A     66 N/A N/A S6G14     29.91S
JACKSONVILLE   LGT RAIN  66  65  96 S5        29.86S FOG
PINEY ISLAND   LGT RAIN  70  67  90 SW12      29.88R
WILMINGTON     CLOUDY    68  67  96 SW13      29.86R


$$

NCZ011>013-027>030-043-044-078>080-089-090>093-098-241300-
COASTAL PLAIN

CITY           SKY/WX    TMP DP  RH WIND       PRES   REMARKS
AHOSKIE        PTCLDY    64  61  91 S6        29.81R
CLINTON        CLOUDY    65  65 100 S3        29.84R
ELIZABETHTOWN  DRIZZLE   66  66 100 S3        29.85R
GOLDSBORO      MOCLDY    64  64 100 CALM      29.82R
GREENVILLE     PTCLDY    64  63  94 S6        29.85S
HAVELOCK       RAIN      68  66  93 SW8       29.88R FOG
KENANSVILLE    CLOUDY    66  65  96 CALM      29.85S
KINSTON        MOCLDY    66  64  94 S6        29.84R
NEW BERN       LGT RAIN  69  66  90 S7        29.87R
RICHLANDS      CLOUDY    66  63  88 S9        29.86S
ROCKY MOUNT    CLEAR     63  60  90 S7        29.81R
WASHINGTON     MOCLDY    66  64  95 S3        29.84S
WHITEVILLE     DRIZZLE   66  65  96 S6        29.85R

$$

AMZ130-135-150-152-154-156-158-170-250-252-270-ANZ085-086-088-633-658-670-241300-
MARINE OBSERVATIONS

STATION/POSITION TIME  TEMP    WIND        PRES    WAVE   SWELL
                       AIR SEA DIR/SP/G            HT/PER HT/PER
                 (UTC) (F)     (DEG/KT/KT) (MB)    (FT/S) (FT/S)
CHESAPEAKE LIGHT 1200   62     200/ 28/ 28 1008.5
64 E VA BEACH    1200   69 64  180/ 21/ 25 1009.6   13/10  10/10
DUCK             1200   65 56  200/ 16/ 19 1009.4
2 E DUCK         1200      58                N/A     8/11   3/11
10 NE DUCK       1200      58                N/A    12/11   5/11
OREGON INLET     1200   58 54  200/ 16/ 19 1011.5
13E OREGON INLT  1200      64                N/A    13/10   5/11
HATTERAS CG      1200   68 61  220/  8/ 12 1012.4
DIAMOND BUOY     1200   74     190/ 17/ 23 1011.9   10/ 9   7/ 9
17 S OCRACOKE    NOT AVBL
CAPE LOOKOUT     1200   64     190/  9/ 10 1011.8
BEAUFORT LAB     1200   65 57  230/  3/ 10 1011.0
30 SE NEW RIVER  1200   71 70  210/ 10/ 14 1011.9   10/ 9  10/ 9
5 SE WRIGHTSVLE  1200   59 60  200/  8/ 10 1010.8
225 S CAPE HAT   1133   75 73  190/ 21/ 27 1015.8   10/ 8
41 SE CHARLESTON 1200   76 75  210/ 23/ 29 1010.8   10/10   8/10

$$


USA.gov is the U.S. government's official web portal to all federal, state and local government web resources and services.